Location: Chevoux
(46.3801°N, 4.9476°E)
Time: 00:37:53
(UTC+00:00)

ISS - Visible Passes

Search period start: 20 April 2021 00:00
Search period end: 30 April 2021 00:00
Orbit: 418 x 421 km, 51.6° (Epoch: 19 April)

Date Brightness Start Highest point End Pass type
(mag) Time Alt. Az. Time Alt. Az. Time Alt. Az.
26 Apr -1.9 03:47:16 10° SSW 03:50:03 24° SE 03:52:51 10° E visible
27 Apr -1.4 03:00:59 11° S 03:02:51 16° SE 03:04:57 10° E visible
28 Apr -3.4 03:48:33 10° SW 03:51:53 59° SSE 03:55:13 10° ENE visible
29 Apr -2.8 03:02:52 22° SSW 03:04:33 37° SE 03:07:43 10° ENE visible
